Location: Newark
(41.0400°S, 62.7845°W)
Time: 14:29:33
(UTC+00:00)

STARLINK-3086 - Pass Details

Date: 05 June 2022
Orbit: 570 x 574 km, 70.0° (Epoch: 04 July)

Event Time Altitude Azimuth Distance (km) Brightness Sun altitude
Rises 09:40:04 0° 19° (NNE) 2,776 7.7 -20.0°
Reaches altitude 10° 09:43:02 10° 41° (NE) 1,888 7.1 -19.4°
Maximum altitude 09:45:31 15° 78° (ENE) 1,577 7.0 -19.0°
Drops below altitude 10° 09:48:00 10° 114° (ESE) 1,904 7.1 -18.5°
Sets 09:51:00 0° 136° (SE) 2,812 7.6 -18.0°
